Voltar ao catálogo

HULIANWANG DIGUI-96

AtivoComunicaçõesLEO
NORAD 66412·PAYLOAD·🇨🇳 China

Lançado Nov 10, 2025 de Wenchang Space Launch Site

Loading…

Próximas Passagens (próximas 24 horas)

TLE

AtualizadoSource: Space-Track

Época: Sep 14, 2026, 21:28 UTC

1 66412U 25258A   26257.89447847 -.00000093  00000-0  66430-4 0  9990
2 66412  50.0063 333.9011 0000108 118.5672 241.5211 13.29330266 41662

Acompanhe HULIANWANG DIGUI-96 em tempo real com AllMySat

Download on the App Store